Tracking 30743 objects as of 20-Jun-2025
HD Live streaming from Space Station
objects crossing your sky now

NAVSTAR 64 (USA 206)

Track NAVSTAR 64 (USA 206) now!
NAVSTAR 64 (USA 206) is classified as:


NORAD ID: 35752
Int'l Code: 2009-043A
Perigee: 20,040.4 km
Apogee: 20,336.2 km
Inclination: 56.0 °
Period: 717.9 minutes
Semi major axis: 26559 km
RCS: 6.3 m2 (large)
Launch date: August 17, 2009
Source: United States (US)
Launch site: AIR FORCE EASTERN TEST RANGE (AFETR)
PRN: 5
Your satellite tracking list
Your tracking list is empty




NASA's NSSDC Master Catalog

Two Line Element Set (TLE):
1 35752U 09043A   25170.32864531 -.00000067  00000-0  00000-0 0  9999
2 35752  55.9652  41.7372 0055680  78.4226  45.4305  2.00575436116082
Source of the keplerian elements: AFSPC